{"data":{"norad_id":68478,"intl_designator":"2026-067BQ","name":"FOSSASAT-2E25","alt_names":[],"object_type":"PAYLOAD","status":"ACTIVE","operator":null,"country":"SPN","launch_date":"2026-03-30","launch_site_code":"AFWTR","launch_vehicle":null,"mission":null,"orbit_class":"UNKNOWN","rcs_meters":null,"size_class":null,"mass_kg":null,"dimensions":null,"purposes":[],"wikipedia_slug":null,"has_3d_model":false,"image_url":null,"decayed_at":null,"tle_current":{"epoch":"2026-09-19T15:31:54.453792Z","epoch_age_seconds":142591,"freshness":"FRESH","line1":"1 68478U 26067BQ  26262.64715803  .00000537  00000+0  58146-4 0  9998","line2":"2 68478  97.7702 219.5870 0001943  19.5042 340.6251 14.92270877 25811","mean_motion":14.92270877,"eccentricity":0.0001943,"inclination_deg":97.7702,"raan_deg":219.587,"arg_perigee_deg":19.5042,"mean_anomaly_deg":340.6251,"bstar":5.8146e-5,"rev_number":2581,"period_min":96.497225952363,"perigee_km":589.50252490839,"apogee_km":592.2106758215,"semimajor_km":6968.9936003649,"source":"CELESTRAK","updated_at":"2026-09-20T09:00:24.243867Z"}}}